Tracking 18852 objects as of 23-Nov-2017
HD Live streaming from Space Station
objects crossing your sky now

NAXING 1

Track NAXING 1 now!
10-day predictions
NAXING 1 is classified as:


NORAD ID: 28221
Int'l Code: 2004-012B
Perigee: 585.2 km
Apogee: 601.1 km
Inclination: 97.7 °
Period: 96.4 minutes
Semi major axis: 6964 km
RCS: 0.3151 m2 (medium)
Launch date: April 18, 2004
Source: People's Republic of China (PRC)
Launch site: Xichang Space Center, China (XSC)

China's first nano-satellite; high-tech demonstration experiments
aabbcc
Your satellite tracking list
Your tracking list is empty




NASA's NSSDC Master Catalog

Two Line Element Set (TLE):
1 28221U 04012B   17326.40607549  .00000452  00000-0  47924-4 0  9997
2 28221  97.7284 269.5865 0011436  33.3321 326.8617 14.93833229739168
Source of the keplerian elements: AFSPC